CW8553 Weather Reports


Display with metric or nautical units.
time (UTC)temp
F
wind
direction
speed
MPH
gust
MPH
rain 1hr
in
rain 24hr
in
rain mn
in
humidity
%
barometer
mb
20260510174538 55 0 0.0 4.0 0.00 0.00 0.00 88 1018.7
20260510173038 53 0 0.0 3.0 0.00 0.00 0.00 89 1019.1
20260510171546 53 0 0.0 2.0 0.00 0.00 0.00 89 1019.0
20260510170037 53 0 0.0 3.0 0.00 0.00 0.00 89 1018.9
20260510164542 54 0 0.0 3.0 0.00 0.00 0.00 87 1018.9
20260510163039 55 0 0.0 3.0 0.00 0.00 0.00 86 1018.5
20260510161537 53 0 0.0 3.0 0.00 0.00 0.00 91 1017.7
20260510160039 52 0 0.0 1.0 0.00 0.00 0.00 91 1018.2
20260510154537 52 0 0.0 1.0 0.00 0.00 0.00 91 1018.0
20260510153035 53 0 0.0 2.0 0.00 0.00 0.00 91 1018.1
20260510151542 52 0 0.0 1.0 0.00 0.00 0.00 92 1017.6
20260510150051 52 0 0.0 1.0 0.00 0.00 0.00 93 1017.4
20260510144538 51 241 0.0 3.0 0.00 0.00 0.00 94 1017.8
20260510143039 51 242 0.0 3.0 0.00 0.00 0.00 94 1017.9
20260510141537 51 0 0.0 0.0 0.00 0.00 0.00 94 1017.7
20260510140041 50 0 0.0 1.0 0.00 0.00 0.00 95 1017.2
20260510134538 49 0 0.0 1.0 0.00 0.00 0.00 95 1016.6
20260510133038 48 0 0.0 1.0 0.00 0.00 0.00 94 1017.2
20260510131538 47 0 0.0 0.0 0.00 0.00 0.00 93 1017.4
20260510130037 47 0 0.0 0.0 0.00 0.00 0.00 93 1017.6
20260510124539 47 0 0.0 0.0 0.00 0.00 0.00 93 1017.8
20260510123039 48 0 0.0 0.0 0.00 0.00 0.00 93 1017.5
20260510121537 48 0 0.0 0.0 0.00 0.00 0.00 93 1017.3
20260510120037 48 0 0.0 0.0 0.00 0.00 0.00 93 1017.3
20260510114544 48 0 0.0 0.0 0.00 0.00 0.00 92 1017.1
20260510113035 48 0 0.0 0.0 0.00 0.00 0.00 92 1017.4
20260510111540 49 0 0.0 0.0 0.00 0.00 0.00 92 1017.3
20260510110043 49 0 0.0 0.0 0.00 0.00 0.00 92 1017.2
20260510104538 49 0 0.0 0.0 0.00 0.00 0.00 91 1017.0
20260510103040 49 0 0.0 0.0 0.00 0.00 0.00 91 1016.8
20260510101543 50 0 0.0 0.0 0.00 0.00 0.00 90 1016.6
20260510100044 50 0 0.0 0.0 0.00 0.00 0.00 90 1016.5
20260510094546 51 0 0.0 0.0 0.00 0.00 0.00 90 1016.3
20260510093037 51 0 0.0 0.0 0.00 0.00 0.00 90 1016.3
20260510091541 50 0 0.0 0.0 0.00 0.00 0.00 87 1016.2
20260510090036 51 0 0.0 0.0 0.00 0.00 0.00 87 1016.1
20260510084540 51 0 0.0 0.0 0.00 0.00 0.00 86 1016.1
20260510083051 51 0 0.0 0.0 0.00 0.00 0.00 86 1016.0
20260510081541 51 0 0.0 0.0 0.00 0.00 0.00 86 1015.9
20260510080037 51 0 0.0 0.0 0.00 0.00 0.00 86 1015.7
20260510074536 52 0 0.0 0.0 0.00 0.00 0.00 85 1015.9
20260510073050 52 0 0.0 0.0 0.00 0.00 0.00 84 1015.9
20260510071540 53 0 0.0 0.0 0.00 0.00 0.00 84 1016.0
20260510070041 53 0 0.0 0.0 0.00 0.00 0.00 83 1015.9
20260510064540 54 0 0.0 0.0 0.00 0.00 0.00 82 1016.0
20260510063039 54 0 0.0 0.0 0.00 0.00 0.00 82 1016.1
20260510061536 55 0 0.0 0.0 0.00 0.00 0.00 82 1016.1
20260510060044 55 0 0.0 0.0 0.00 0.00 0.00 81 1016.1
20260510054541 56 0 0.0 0.0 0.00 0.00 0.00 81 1016.0
20260510053038 56 0 0.0 0.0 0.00 0.00 0.00 80 1016.1
20260510051539 56 0 0.0 0.0 0.00 0.00 0.00 80 1016.0
20260510050038 57 0 0.0 0.0 0.00 0.00 0.00 78 1016.0
20260510044536 57 0 0.0 0.0 0.00 0.00 0.00 78 1016.0
20260510043043 58 0 0.0 0.0 0.00 0.00 0.00 76 1015.9
20260510041542 59 0 0.0 0.0 0.00 0.00 0.00 75 1016.0
20260510040039 60 0 0.0 0.0 0.00 0.00 0.00 75 1015.9
20260510034538 61 0 0.0 0.0 0.00 0.00 0.00 73 1015.8
20260510033037 62 0 0.0 0.0 0.00 0.00 0.00 71 1015.7
20260510031536 62 0 0.0 0.0 0.00 0.00 0.00 69 1015.8
20260510030050 63 0 0.0 0.0 0.00 0.00 0.00 67 1015.9
20260510024541 64 0 0.0 1.0 0.00 0.00 0.00 65 1015.9
20260510023038 65 0 0.0 0.0 0.00 0.00 0.00 61 1016.1
20260510021536 65 0 0.0 0.0 0.00 0.00 0.00 61 1016.1
20260510020039 65 0 0.0 0.0 0.00 0.00 0.00 62 1016.2
20260510014538 65 0 0.0 1.0 0.00 0.00 0.00 62 1016.4
20260510013038 66 0 0.0 1.0 0.00 0.00 0.00 62 1016.8
20260510011545 67 0 0.0 2.0 0.00 0.00 0.00 60 1016.9
20260510010036 67 0 0.0 1.0 0.00 0.00 0.00 61 1016.9
20260510004547 67 0 0.0 1.0 0.00 0.00 0.00 59 1017.1
20260510003041 67 0 0.0 2.0 0.00 0.00 0.00 58 1017.2
20260510001537 67 0 0.0 1.0 0.00 0.00 0.00 56 1017.4
20260510000041 68 0 0.0 2.0 0.00 0.00 0.00 55 1017.7
20260509234542 68 0 0.0 1.0 0.00 0.00 0.00 52 1017.5
20260509233038 68 0 0.0 3.0 0.00 0.00 0.00 50 1017.9
20260509231542 68 0 0.0 2.0 0.00 0.00 0.00 50 1018.0
20260509230039 68 0 0.0 3.0 0.00 0.00 0.00 52 1018.1
20260509224538 68 267 0.0 4.0 0.00 0.00 0.00 53 1018.5
20260509223038 68 204 1.0 4.0 0.00 0.00 0.00 55 1018.7
20260509221536 66 0 1.0 4.0 0.00 0.00 0.00 54 1018.9
20260509220041 67 0 1.0 4.0 0.00 0.00 0.00 52 1018.9
20260509214539 66 254 1.0 3.0 0.00 0.00 0.00 56 1019.0
20260509213038 66 250 1.0 4.0 0.00 0.00 0.00 57 1019.1
20260509211538 65 263 0.0 5.0 0.00 0.00 0.00 61 1019.3
20260509210044 65 184 1.0 5.0 0.00 0.00 0.00 62 1019.2
20260509204540 65 216 1.0 5.0 0.00 0.00 0.00 63 1019.4
20260509203042 66 194 1.0 5.0 0.00 0.00 0.00 62 1019.5
20260509201538 66 0 0.0 3.0 0.00 0.00 0.00 66 1019.6
20260509200039 64 0 1.0 3.0 0.00 0.00 0.00 66 1019.8
20260509194537 64 255 1.0 3.0 0.00 0.00 0.00 65 1020.1
20260509193042 64 188 0.0 5.0 0.00 0.00 0.00 66 1020.3
20260509191540 63 131 0.0 5.0 0.00 0.00 0.00 69 1020.4
20260509190040 63 122 1.0 6.0 0.00 0.00 0.00 71 1020.6
20260509184550 61 133 1.0 4.0 0.00 0.00 0.00 72 1020.7
20260509183039 63 0 1.0 4.0 0.00 0.00 0.00 69 1020.8
20260509181550 62 122 2.0 6.0 0.00 0.00 0.00 72 1020.9
20260509180045 60 0 0.0 0.0 0.00 0.00 0.00 76 1021.0